Location: Roanoke
(37.2710°N, 79.9420°W)
Time: 03:23:06
(UTC-05:00)

Vanguard 1 - All Passes

Search period start: 17 November 2019 00:00
Search period end: 27 November 2019 00:00
Orbit: 652 x 3831 km, 34.2° (Epoch: 16 November)

Date Brightness Start Highest point End Pass type
(mag) Time Alt. Az. Time Alt. Az. Time Alt. Az.
17 Nov - 08:43:15 10° SSW 08:52:34 23° SSE 08:58:46 10° ESE daylight
17 Nov - 11:05:02 10° SW 11:13:57 48° SSE 11:19:17 10° E daylight
17 Nov - 13:28:08 10° W 13:34:10 64° S 13:38:36 10° E daylight
17 Nov - 15:49:44 10° W 15:53:44 31° SSW 15:57:53 10° SE daylight
18 Nov - 06:48:23 10° SSE 06:51:03 11° SSE 06:53:30 10° SE daylight
18 Nov - 09:03:07 10° SSW 09:13:47 30° SSE 09:20:22 10° E daylight
18 Nov - 11:26:09 10° WSW 11:34:58 57° S 11:40:13 10° E daylight
18 Nov - 13:49:20 10° W 13:55:05 60° S 13:59:27 10° ESE daylight
18 Nov - 16:11:06 10° WSW 16:14:34 22° SSW 16:18:12 10° SSE daylight
19 Nov - 07:03:58 10° S 07:12:28 16° SSE 07:18:52 10° ESE daylight
19 Nov - 09:23:31 10° SW 09:34:58 38° SSE 09:41:39 10° E daylight
19 Nov - 11:47:23 10° WSW 11:55:58 64° S 12:01:07 10° E daylight
19 Nov - 14:10:32 10° W 14:15:58 51° SSW 14:20:15 10° ESE daylight
19 Nov - 16:32:54 10° WSW 16:35:22 14° SSW 16:37:57 10° S daylight
20 Nov - 07:22:29 10° SSW 07:33:49 23° SSE 07:41:30 10° ESE daylight
20 Nov - 09:44:18 10° SW 09:56:06 47° SSE 10:02:44 10° E daylight
20 Nov - 12:08:43 10° W 12:16:58 68° S 12:22:00 10° E daylight
20 Nov - 14:31:46 10° W 14:36:48 40° SSW 14:40:57 10° SE daylight
21 Nov - 07:41:59 10° SSW 07:55:07 30° SSE 08:03:20 10° E daylight
21 Nov - 10:05:22 10° WSW 10:17:13 56° SSE 10:23:43 10° E daylight
21 Nov - 12:30:05 10° W 12:37:57 68° S 12:42:51 10° ESE daylight
21 Nov - 14:53:05 10° W 14:57:35 30° SSW 15:01:27 10° SE daylight
22 Nov - 05:43:56 10° S 05:53:00 15° SE 06:00:12 10° ESE visible
22 Nov - 08:02:07 10° SW 08:16:23 38° SSE 08:24:46 10° E daylight
22 Nov - 10:26:40 10° WSW 10:38:18 64° S 10:44:38 10° E daylight
22 Nov - 12:51:27 10° W 12:58:54 63° S 13:03:40 10° ESE daylight
22 Nov - 15:14:37 10° WSW 15:18:18 21° SSW 15:21:37 10° SSE daylight
23 Nov - 06:01:39 10° S 06:14:23 22° SSE 06:23:31 10° ESE visible
23 Nov - 08:22:42 10° SW 08:37:37 46° SSE 08:45:58 10° E daylight
23 Nov - 10:48:06 10° WSW 10:59:22 70° S 11:05:31 10° E daylight
23 Nov - 13:12:48 10° W 13:19:47 54° SSW 13:24:25 10° ESE daylight
23 Nov - 15:36:43 10° WSW 15:38:57 13° SW 15:41:05 10° S daylight
24 Nov - 06:20:38 10° SSW 06:35:44 29° SSE 06:45:45 10° E visible
24 Nov - 08:43:39 10° SW 08:58:49 55° SSE 09:07:02 10° E daylight
24 Nov - 11:09:36 10° W 11:20:25 72° S 11:26:23 10° E daylight
24 Nov - 13:34:12 10° W 13:40:36 42° SSW 13:45:03 10° SE daylight
25 Nov - 04:25:08 10° SSE 04:32:58 13° SE 04:39:45 10° ESE visible
25 Nov - 06:40:23 10° SSW 06:57:03 36° SSE 07:07:26 10° E visible
25 Nov - 09:04:52 10° WSW 09:20:00 63° SSE 09:28:00 10° E daylight
25 Nov - 11:31:08 10° W 11:41:28 71° S 11:47:13 10° ESE daylight
25 Nov - 13:55:38 10° W 14:01:19 32° SSW 14:05:28 10° SE daylight
26 Nov - 04:41:23 10° S 04:54:20 19° SE 05:04:29 10° ESE visible
26 Nov - 07:00:40 10° SW 07:18:21 44° SSE 07:28:48 10° E daylight
26 Nov - 09:26:19 10° WSW 09:41:10 69° S 09:48:56 10° E daylight
26 Nov - 11:52:40 10° W 12:02:27 66° SSW 12:08:01 10° ESE daylight
26 Nov - 14:17:17 10° W 14:21:56 22° SW 14:25:35 10° SSE daylight
